Location: Bartshausen
(51.8454°N, 9.8167°E)
Time: 05:45:58
(UTC+00:00)

Cosmos 1459 Rocket - Pass Details

Date: 08 November 2025
Orbit: 936 x 998 km, 83.0° (Epoch: 11 December)

Event Time Altitude Azimuth Distance (km) Brightness Sun altitude
Rises 04:43:51 0° 345° (NNW) 3,731 6.8 -16.2°
Reaches altitude 10° 04:46:31 10° 339° (NNW) 2,779 6.1 -15.8°
Maximum altitude 04:52:22 40° 272° (W) 1,442 4.4 -14.9°
Drops below altitude 10° 04:58:10 10° 206° (SSW) 2,750 6.2 -14.0°
Sets 05:00:49 0° 199° (SSW) 3,688 6.9 -13.6°
